Location: Ponte Samoggia
(44.5667°N, 11.1333°E)
Time: 22:43:58
(UTC+00:00)

Cosmos 1943 - Pass Details

Date: 26 May 2022
Orbit: 834 x 849 km, 71.0° (Epoch: 29 June)

Event Time Altitude Azimuth Distance (km) Brightness Sun altitude
Exits shadow 02:50:32 - 218° (SW) 2,590 5.1 -7.7°
Reaches altitude 10° 02:50:52 10° 219° (SW) 2,468 5.0 -7.6°
Maximum altitude 02:56:28 60° 299° (WNW) 965 3.4 -6.8°
Drops below altitude 10° 03:02:06 10° 19° (NNE) 2,479 6.7 -6.0°
Sets 03:04:36 0° 23° (NNE) 3,416 7.6 -5.7°
